Location: Lake Zurich
(42.1970°N, 88.0930°W)
Time: 08:40:47
(UTC-05:00)

Daily predictions for brighter satellites

Satellite Brightness Start Highest point End
(mag) Time Altitude Azimuth Time Altitude Azimuth Time Altitude Azimuth
ATLAS 5 CENTAUR R/B 2.5 21:02:53 10° S 21:06:53 30° ESE 21:11:11 10° NE
Atlas Centaur 2 3.1 21:05:33 10° SSW 21:07:16 13° S 21:08:59 10° SSE
Cosmos-2242 4.4 21:03:18 10° NNW 21:07:17 40° W 21:11:17 10° SSW
Lacrosse 4 Rocket 1.7 21:04:35 10° SSW 21:08:47 76° WNW 21:13:10 10° NNE
Cosmos 2237 Rocket 2.4 21:05:05 10° NNW 21:10:42 75° WSW 21:16:18 10° SSE
Cosmos 407 Rocket 4.3 21:07:22 10° SW 21:12:22 55° WNW 21:17:25 10° NNE
Tiangong 1 1.2 21:11:14 10° SW 21:13:54 41° SSE 21:16:33 10° E
Cosmos 1726 4.4 21:15:57 10° NE 21:17:13 11° ENE 21:18:27 10° E
Cosmos 1023 Rocket 4.4 21:12:10 10° SSW 21:17:18 75° ESE 21:22:25 10° NNE
Milstar 3 Cent rocket 4.2 21:12:33 10° WSW 21:18:57 33° S 21:30:38 10° ESE
YAOGAN 6 2.6 21:15:32 10° SSE 21:19:09 87° WSW 21:22:50 10° NNW
Cosmos 1076 Rocket 4.4 21:17:16 10° SSE 21:21:08 32° E 21:25:01 10° NNE
USA 186 4.2 21:20:44 10° WSW 21:21:41 12° W 21:22:39 10° WNW
Okean 3 Rocket 3.9 21:18:50 10° SSE 21:23:09 47° E 21:27:28 10° NNE
Meteor 1-24 Rocket 4.0 21:17:12 10° SSW 21:23:10 81° W 21:28:58 10° N
Cosmos 1954 Rocket 4.2 21:20:04 10° SSW 21:25:17 78° WNW 21:30:29 10° NNE
Cosmos 2227 Rocket 2.8 21:20:19 10° SW 21:25:55 64° WNW 21:31:33 10° NNE
Cosmos 1908 3.9 21:25:03 10° N 21:28:43 39° ENE 21:31:57 12° SE
Cosmos 1850 Rocket 4.1 21:24:06 10° S 21:29:06 53° ESE 21:34:09 10° NNE
Cosmos 1356 Rocket 4.2 21:26:06 10° SSE 21:29:56 35° E 21:33:51 10° NNE
Cosmos 2221 2.7 21:26:40 10° N 21:31:02 61° E 21:35:20 10° SSE
SL-16 R/B 2.3 21:27:44 10° NNW 21:33:25 73° ENE 21:38:38 12° SSE
Cosmos 1674 3.2 21:30:02 10° SSE 21:33:35 41° E 21:37:09 10° NNE
H-2A R/B 3.0 21:31:57 12° SE 21:36:22 36° ENE 21:41:16 10° N
Cosmos 614 Rocket 4.0 21:32:48 10° SSW 21:38:02 88° WNW 21:43:15 10° NNE
In-Cosmos 22 4.5 21:36:53 10° SSW 21:42:34 76° W 21:48:21 10° N
Cosmos 1818 3.7 21:37:19 10° NNW 21:42:46 70° NE 21:47:13 15° SE
USA 234 3.2 21:36:47 10° NE 21:43:18 65° SE 21:49:46 10° SW
SPOT 5 3.1 21:39:46 13° SSE 21:43:51 56° ENE 21:48:46 10° N
ARGOS 3.3 21:39:06 12° SSE 21:44:05 64° ENE 21:49:27 10° N
USA 245 3.4 21:42:55 17° SE 21:45:08 48° ENE 21:48:54 10° N
Cosmos 1766 Rocket 4.1 21:41:51 13° SSE 21:45:18 38° E 21:49:20 10° NNE
Lacrosse 5 3.2 21:41:36 10° NNW 21:46:11 33° NNE 21:50:44 10° E
ERS-1 Rocket 3.1 21:42:03 10° S 21:47:04 75° WSW 21:52:08 10° NNW
MetOp-A 4.1 21:43:19 10° SSE 21:48:36 89° ENE 21:54:00 10° NNW
Cosmos 2333 Rocket 4.2 21:47:29 10° NW 21:51:51 23° WSW 21:56:10 10° SSW
Cosmos 1741 Rocket 4.0 21:47:25 10° SSW 21:52:44 84° ESE 21:58:04 10° NNE
Cosmos 2061 Rocket 4.1 21:49:04 10° N 21:55:27 71° E 22:01:00 14° SSE
Cosmos 2100 Rocket 4.0 21:51:18 10° N 21:57:39 87° E 22:03:34 12° S
RESURS DK-1 3.7 21:54:27 10° N 21:58:06 28° ENE 22:00:38 16° ESE
Cosmos 1459 Rocket 4.0 21:54:07 10° N 22:00:28 85° E 22:06:01 13° S
Abrixas rocket 4.1 21:59:09 10° NW 22:02:01 28° N 22:04:53 10° ENE
H-2A R/B 3.7 22:00:30 15° ESE 22:02:47 22° ENE 22:06:04 10° NNE
Cosmos 1000 Rocket 4.5 21:59:33 10° S 22:05:52 85° E 22:12:11 10° N
Cosmos 2227 4.4 22:01:34 10° S 22:07:05 51° ESE 22:12:36 10° NE
Cosmos 2123 Rocket 4.2 22:05:26 17° SSE 22:10:06 51° E 22:16:04 10° NNE
EO 1 Delta rocket 3.9 22:08:12 20° SSE 22:11:27 64° ENE 22:16:01 10° N
Meteor 1-21 Rocket 4.3 22:05:56 10° S 22:11:39 85° WNW 22:17:17 10° N
Cosmos 2173 Rocket 4.1 22:06:16 10° N 22:12:26 80° W 22:17:53 14° S
Landsat 7 4.0 22:16:33 24° SE 22:19:18 60° ENE 22:24:01 10° N
SL-14 R/B 3.6 22:19:16 28° SSE 22:20:54 46° E 22:24:43 10° NNE
Cosmos 2208 Rocket 4.4 22:17:53 10° NNW 22:23:07 59° WSW 22:26:54 19° S
Cosmos 1328 4.1 22:22:19 29° SSE 22:23:59 49° E 22:27:54 10° NNE
Cosmos 2084 3.5 22:20:39 10° SW 22:24:38 68° NW 22:28:28 10° NNE
Cosmos 2297 Rocket 4.3 22:22:12 10° WSW 22:27:01 28° NW 22:31:52 10° N
Cosmos 1242 Rocket 3.7 22:24:16 10° NNW 22:27:46 40° W 22:30:10 18° SSW
Cosmos 1802 Rocket 4.2 22:22:11 10° NNW 22:28:17 70° W 22:33:10 17° S
Nimbus 7 Rocket 4.4 22:22:21 10° NNE 22:28:26 90° NE 22:34:24 10° SSW
IGS 5A 4.0 22:26:45 29° SE 22:28:27 46° ENE 22:32:26 10° N
SPOT 1/Viking Rocket 3.7 22:27:38 21° S 22:31:03 73° WSW 22:36:13 10° NNW
Cosmos 1814 Rocket 4.3 22:26:59 10° NNW 22:32:17 59° ENE 22:34:58 28° SE
Cosmos 1725 Rocket 4.0 22:26:45 10° N 22:33:02 76° E 22:36:52 25° SSE
ERBS 4.1 22:30:51 10° NNW 22:33:45 26° NNE 22:35:29 17° ENE
Terra 2.0 22:31:59 29° SE 22:34:15 59° ENE 22:38:57 10° N
Cosmos 1486 Rocket 4.4 22:33:16 28° SSE 22:35:27 43° ESE 22:40:27 10° NNE
Cosmos 1300 2.6 22:34:33 10° N 22:38:24 84° E 22:39:44 39° SSE
Cosmos 2263 Rocket 2.9 22:38:53 28° SE 22:40:22 33° ESE 22:45:17 10° NE
BREEZE-M DEB (TANK) 4.1 22:40:46 10° WNW 22:43:10 31° N 22:49:14 10° ENE
deb Chang Zheng 4 3.9 22:41:52 10° NNE 22:46:05 46° E 22:47:09 38° SE
Cosmos 1626 3.0 22:46:13 31° E 22:46:20 31° E 22:49:40 10° NNE
Cosmos 841 Rocket 4.0 22:42:39 10° N 22:47:46 49° ENE 22:49:58 30° ESE
Tiangong 1 0.8 22:46:38 10° W 22:49:18 75° NW 22:49:18 75° NW
Cosmos 220 Rocket 3.9 22:48:02 33° S 22:49:57 73° ESE 22:54:22 10° NNE
Cosmos 1867 4.3 22:44:46 10° SW 22:50:05 54° NW 22:55:28 10° NNE
Cosmos 332 Rocket 3.8 22:45:44 10° NNW 22:50:40 82° WSW 22:52:42 36° SSE
ATLAS 5 CENTAUR R/B 3.4 22:47:03 10° WSW 22:51:25 37° NW 22:56:11 10° NNE
Cosmos 1763 Rocket 3.5 22:47:05 10° NNW 22:52:11 68° ENE 22:54:12 36° SE
Cosmos 1726 2.9 22:49:16 10° NNW 22:52:48 45° W 22:54:09 30° SW
Spot 4 4.3 22:52:27 33° ESE 22:54:14 48° ENE 22:58:55 10° N
CZ-4C R/B 4.4 22:56:25 30° ESE 22:57:29 35° ENE 23:01:28 10° N
Cosmos 1603 3.9 22:54:41 10° NNW 23:00:17 64° WSW 23:02:49 32° S
Meteor 2-10 4.3 22:54:47 10° NNW 23:00:20 70° W 23:03:14 30° S
Cosmos 1500 Rocket 3.6 23:05:52 37° SSW 23:07:37 78° W 23:12:06 10° N
Cosmos 1455 2.7 23:08:58 10° N 23:12:42 44° ENE 23:12:57 43° E
Cosmos 2058 2.8 23:12:00 53° S 23:12:58 87° E 23:17:12 10° N
H-2A R/B 3.5 23:12:35 17° SW 23:15:46 30° W 23:20:30 10° NW
SL-16 R/B 4.4 23:13:35 10° WNW 23:16:50 16° W 23:20:05 10° SW
CARTOSAT-1 4.2 23:15:43 34° SSW 23:17:03 46° W 23:21:13 10° NNW
Cosmos 1943 3.1 23:12:58 10° NNW 23:18:39 90° WSW 23:20:39 43° SSE
Cosmos 1503 Rocket 4.1 23:19:42 46° SSE 23:20:49 56° ESE 23:25:53 10° NNE
Cosmos 2151 3.3 23:22:03 40° SW 23:23:25 61° W 23:27:41 10° N
Cosmos 1703 3.2 23:25:25 64° SSW 23:25:57 81° W 23:29:58 10° N
USA 234 4.4 23:19:58 10° NE 23:26:08 45° NNW 23:32:15 10° W
Cosmos 1805 Rocket 3.8 23:26:04 48° ESE 23:26:19 49° E 23:30:31 10° NNE
Cosmos 2228 Rocket 4.5 23:23:31 10° NNW 23:27:36 32° W 23:29:26 24° SW
Cosmos 2233 Rocket 4.2 23:22:41 10° NNW 23:28:51 65° W 23:31:37 33° SSW
Lacrosse 5 2.0 23:24:25 10° NW 23:29:23 56° SW 23:30:16 48° SSW
CZ-2C R/B 4.2 23:28:02 29° ESE 23:30:11 39° ENE 23:35:26 10° N
Cosmos 1633 Rocket 4.0 23:33:49 32° E 23:33:49 32° E 23:37:36 10° NNE
RESURS DK-1 3.8 23:32:35 10° NW 23:36:04 26° WSW 23:36:33 25° WSW
H-2A R/B 3.1 23:37:37 31° SW 23:38:35 35° W 23:42:33 10° NNW
Abrixas rocket 3.0 23:35:50 10° WNW 23:38:21 49° NW 23:38:21 49° NW
Cosmos 371 Rocket 4.4 23:37:36 10° NW 23:41:52 32° WSW 23:43:02 28° SW
ARGOS Delta rocket 4.0 23:41:39 10° NNE 23:47:01 69° E 23:47:59 55° SSE
Cosmos 1151 Rocket 4.4 23:43:56 10° NNW 23:47:48 31° W 23:48:52 27° WSW
CZ-4B R/B 4.0 23:46:34 10° N 23:51:45 57° WNW 23:53:59 32° SW
Cosmos 968 Rocket 4.2 23:53:51 36° ESE 23:53:59 36° ESE 23:58:46 10° NE
SME Rocket 3.2 23:55:03 54° WSW 23:55:10 55° WSW 23:59:21 10° NNW
